Wind_Speed
37 43 55 58 54 53 51 52 51 51 42 43 44 41 40 33 33 32 30 28 26 24 22 19 16 13 9 6 6 12 17 23
46 46 47 55 55 58 57 53 54 57 50 51 51 47 44 36 32 30 30 29 30 28 27 25 22 19 15 13 9 8 11 17
54 55 48 53 57 52 61 58 55 60 57 50 48 44 46 39 35 33 31 28 27 28 29 28 26 23 21 19 15 12 11 11
49 54 50 51 58 54 57 61 54 58 61 53 48 42 50 46 43 38 32 30 27 24 23 28 29 27 25 23 21 19 15 14
48 44 46 45 49 56 48 58 55 49 59 56 52 45 51 52 46 41 37 35 32 29 26 24 29 30 29 27 25 24 21 18
44 40 40 37 37 46 44 54 52 45 54 60 55 49 46 50 49 44 41 37 36 32 29 26 26 28 29 30 30 29 26 23
44 30 31 29 32 39 33 52 46 44 44 49 54 49 49 51 46 45 44 38 40 36 33 30 28 28 30 29 31 32 30 27
35 28 21 18 21 28 35 46 43 43 39 40 60 51 46 47 50 47 44 44 42 39 35 32 32 27 26 30 30 33 32 31
33 21 15 11 17 31 36 41 36 36 41 40 42 49 48 45 44 48 52 48 41 41 38 35 34 33 30 30 30 31 35 34
31 16 8 3 13 26 31 34 35 37 34 34 42 43 48 48 47 51 47 47 47 43 42 38 36 37 35 32 33 33 35 36
26 14 2 12 14 22 23 32 33 31 34 40 38 38 44 49 52 48 44 43 45 43 42 40 41 40 35 35 35 33 34 36
27 18 11 2 12 18 22 30 27 29 36 44 42 38 38 53 51 48 47 46 45 42 43 44 41 39 37 36 34 33 35 36
29 15 14 11 10 13 23 31 28 32 37 43 47 39 27 28 34 39 38 46 46 42 47 38 36 37 35 31 33 32 34 36
25 19 16 25 18 12 24 28 23 31 35 40 39 47 34 28 30 30 39 39 46 51 41 35 31 30 28 28 31 32 33 34
28 23 28 26 21 19 20 20 19 22 36 33 39 46 45 30 30 27 34 43 50 55 31 30 32 29 29 25 25 28 30 32
32 25 25 24 24 18 15 14 16 16 21 21 14 10 9 7 13 19 24 29 29 35 30 32 30 33 28 30 25 26 26 26
33 26 19 30 29 22 18 17 15 12 12 12 12 15 23 23 27 25 21 19 20 26 29 30 28 30 28 27 28 22 29 23
31 26 19 16 26 23 16 13 12 11 11 11 10 12 22 30 31 29 27 27 28 29 27 27 25 26 29 24 26 28 21 29
26 24 21 19 15 19 18 12 8 5 5 4 5 8 10 9 14 16 15 26 32 27 27 27 28 27 29 33 27 26 28 30
Wind_Direction
274 263 256 254 247 239 233 233 230 229 224 231 237 238 239 231 228 228 231 235 239 244 244 246 252 253 263 276 265 241 237 239
284 276 268 260 249 238 231 229 227 230 226 225 232 231 232 222 221 223 221 230 235 239 244 245 247 252 251 253 259 261 243 245
298 292 278 258 262 245 231 224 224 223 226 223 227 231 225 226 219 221 225 225 229 238 242 245 246 247 249 253 257 259 261 260
303 290 284 283 251 252 231 222 218 218 221 222 224 225 220 225 220 219 222 223 224 229 239 244 244 244 246 248 252 255 259 259
296 290 282 280 263 247 236 217 214 217 215 214 223 223 219 218 219 220 220 223 225 229 238 246 245 243 243 245 247 250 253 258
304 294 290 270 265 243 236 210 210 213 213 215 218 221 222 225 226 220 219 226 229 231 235 244 247 244 244 243 243 246 248 253
338 303 295 275 255 231 226 200 203 209 211 210 221 222 221 223 220 222 223 228 230 231 235 237 247 247 245 245 243 243 244 247
331 319 308 278 245 213 198 189 199 206 210 214 214 221 222 227 228 224 227 224 230 233 234 236 241 245 250 249 245 241 243 245
337 329 322 287 234 183 172 182 192 204 212 220 218 219 223 227 237 233 234 230 236 235 235 235 238 247 251 250 248 244 240 241
333 340 307 273 153 153 165 176 189 199 207 215 220 223 220 223 238 226 231 235 233 236 235 234 236 247 251 253 246 244 238 237
340 16 8 194 169 164 178 182 194 200 208 216 222 224 224 223 228 226 220 225 230 230 229 229 235 244 252 254 244 242 238 238
341 2 91 126 177 184 202 196 195 215 218 217 223 227 219 216 208 213 220 225 235 221 220 226 234 243 252 247 239 241 238 241
351 349 99 128 157 177 192 196 199 210 211 213 215 217 211 198 204 211 216 219 213 213 217 224 236 246 249 242 241 241 241 242
4 7 22 111 142 164 168 187 203 220 212 215 211 211 202 194 193 203 210 216 218 221 224 216 235 242 247 250 243 243 239 237
8 7 8 78 110 139 190 203 213 235 220 219 222 225 209 212 206 217 226 221 224 229 229 231 233 236 253 254 245 237 237 240
8 22 9 47 97 132 146 171 208 191 198 214 167 149 135 170 198 216 224 221 226 235 232 236 235 229 240 248 254 244 235 236
356 16 40 25 42 92 130 120 145 155 190 211 192 195 214 216 217 219 218 223 223 222 234 228 229 220 226 235 240 242 240 253
353 5 32 44 32 38 44 70 93 137 155 168 164 191 214 221 222 219 211 214 222 223 226 230 227 218 238 222 234 238 253 254
354 356 4 25 34 17 13 27 51 66 82 109 169 188 189 200 197 203 217 221 226 227 234 232 222 224 230 240 238 248 256 256
Height
3049 3048 3048 3049 3053 3057 3060 3063 3068 3073 3079 3086 3091 3095 3099 3103 3109 3112 3116 3119 3121 3123 3124 3125 3127 3128 3129 3130 3131 3132 3133 3135
3032 3033 3031 3027 3031 3037 3044 3049 3056 3060 3065 3071 3078 3084 3091 3094 3100 3105 3108 3112 3115 3117 3119 3120 3123 3125 3126 3128 3128 3129 3129 3131
3016 3010 3010 3011 3009 3017 3025 3031 3039 3046 3053 3061 3069 3075 3082 3088 3093 3097 3101 3104 3108 3110 3113 3115 3117 3120 3122 3123 3125 3126 3127 3128
2999 2992 2990 2990 2989 2995 3005 3015 3024 3031 3041 3049 3057 3064 3070 3077 3081 3088 3095 3098 3101 3105 3107 3109 3111 3113 3116 3118 3120 3121 3123 3123
2984 2978 2972 2970 2970 2973 2986 3000 3011 3019 3030 3036 3046 3053 3059 3066 3073 3082 3086 3090 3094 3098 3101 3103 3104 3107 3109 3112 3114 3116 3117 3118
2970 2963 2956 2952 2951 2956 2968 2984 2998 3008 3016 3025 3034 3043 3051 3060 3066 3072 3077 3082 3087 3091 3094 3097 3098 3100 3102 3105 3107 3109 3111 3113
2959 2952 2945 2940 2938 2942 2955 2970 2987 2997 3007 3014 3025 3034 3042 3049 3056 3062 3068 3074 3078 3083 3086 3089 3092 3094 3095 3098 3100 3102 3105 3107
2956 2948 2940 2933 2933 2937 2947 2965 2979 2990 3001 3009 3018 3025 3033 3041 3048 3054 3059 3064 3068 3074 3079 3081 3085 3088 3089 3091 3093 3095 3098 3101
2954 2946 2940 2934 2931 2934 2948 2961 2975 2985 2996 3003 3010 3017 3024 3032 3038 3045 3050 3056 3062 3067 3071 3074 3077 3080 3082 3083 3084 3087 3090 3093
2954 2947 2941 2939 2937 2940 2949 2959 2971 2980 2990 2998 3003 3009 3014 3023 3029 3034 3041 3047 3052 3058 3062 3066 3069 3072 3073 3074 3076 3078 3082 3085
2956 2949 2945 2944 2944 2945 2952 2958 2966 2974 2981 2989 2995 2999 3006 3013 3019 3024 3030 3035 3040 3045 3051 3057 3060 3063 3065 3066 3067 3069 3073 3076
2958 2953 2948 2946 2943 2946 2951 2958 2964 2971 2977 2982 2988 2991 2995 3000 3006 3012 3017 3023 3030 3034 3039 3045 3050 3054 3055 3056 3058 3061 3064 3067
2963 2955 2947 2947 2946 2946 2949 2956 2963 2967 2970 2974 2979 2984 2989 2991 2998 3003 3008 3016 3017 3024 3027 3034 3042 3045 3046 3048 3049 3052 3055 3058
2965 2958 2948 2942 2945 2947 2949 2954 2961 2963 2966 2970 2973 2973 2983 2984 2990 2997 3001 3006 3010 3013 3017 3025 3032 3037 3039 3040 3042 3044 3047 3049
2969 2960 2949 2939 2943 2945 2949 2951 2954 2958 2962 2963 2964 2967 2975 2978 2984 2990 2996 2999 3003 3009 3013 3019 3023 3028 3030 3032 3033 3036 3039 3042
2973 2963 2956 2945 2944 2947 2948 2950 2953 2952 2954 2954 2950 2961 2966 2968 2976 2983 2991 2994 2999 3001 3010 3014 3016 3019 3022 3025 3028 3030 3034 3036
2976 2970 2962 2955 2948 2947 2950 2950 2954 2954 2955 2956 2957 2961 2968 2973 2978 2981 2985 2989 2994 2999 3002 3006 3009 3014 3017 3018 3021 3024 3027 3030
2979 2972 2967 2961 2958 2958 2958 2956 2955 2958 2959 2960 2960 2962 2966 2970 2973 2977 2981 2984 2988 2993 2997 3000 3004 3008 3009 3005 3009 3017 3021 3024
2981 2976 2970 2966 2964 2963 2961 2960 2960 2959 2958 2958 2958 2961 2964 2968 2970 2973 2977 2979 2984 2989 2992 2995 2998 2999 3002 3004 3008 3012 3014 3016